Year,Month,Day,Hour,Minute,Value (Times are PST for temperature in C)
2013,08,12,00,00,15.00
2013,08,12,00,01,15.00
2013,08,12,00,02,15.00
2013,08,12,00,03,15.00
2013,08,12,00,04,14.90
2013,08,12,00,05,14.90
2013,08,12,00,06,14.90
2013,08,12,00,07,14.90
2013,08,12,00,08,14.90
2013,08,12,00,09,14.90
2013,08,12,00,10,14.90
2013,08,12,00,11,14.90
2013,08,12,00,12,14.90
2013,08,12,00,13,14.90
2013,08,12,00,14,14.90
2013,08,12,00,15,14.90
2013,08,12,00,16,14.80
2013,08,12,00,17,14.80
2013,08,12,00,18,14.80
2013,08,12,00,19,14.80
2013,08,12,00,20,14.80
2013,08,12,00,21,14.80
2013,08,12,00,22,14.80
2013,08,12,00,23,14.80
2013,08,12,00,24,14.90
2013,08,12,00,25,14.90
2013,08,12,00,26,14.90
2013,08,12,00,27,14.90
2013,08,12,00,28,14.80
2013,08,12,00,29,14.80
2013,08,12,00,30,14.80
2013,08,12,00,31,14.80
2013,08,12,00,32,14.80
2013,08,12,00,33,14.80
2013,08,12,00,34,14.80
2013,08,12,00,35,14.80
2013,08,12,00,36,14.80
2013,08,12,00,37,14.80
2013,08,12,00,38,14.80
2013,08,12,00,39,14.80
2013,08,12,00,40,14.80
2013,08,12,00,41,14.80
2013,08,12,00,42,14.80
2013,08,12,00,43,14.80
2013,08,12,00,44,14.80
2013,08,12,00,45,14.80
2013,08,12,00,46,14.80
2013,08,12,00,47,14.80
2013,08,12,00,48,14.80
2013,08,12,00,49,14.80
2013,08,12,00,50,14.80
2013,08,12,00,51,14.80
2013,08,12,00,52,14.80
2013,08,12,00,53,14.80
2013,08,12,00,54,14.80
2013,08,12,00,55,14.80
2013,08,12,00,56,14.80
2013,08,12,00,57,14.80
2013,08,12,00,58,14.80
2013,08,12,00,59,14.80
2013,08,12,01,00,14.80
2013,08,12,01,01,14.80
2013,08,12,01,02,14.80
2013,08,12,01,03,14.80
2013,08,12,01,04,14.80
2013,08,12,01,05,14.80
2013,08,12,01,06,14.80
2013,08,12,01,07,14.80
2013,08,12,01,08,14.80
2013,08,12,01,09,14.80
2013,08,12,01,10,14.80
2013,08,12,01,11,14.80
2013,08,12,01,12,14.80
2013,08,12,01,13,14.80
2013,08,12,01,14,14.80
2013,08,12,01,15,14.80
2013,08,12,01,16,14.80
2013,08,12,01,17,14.80
2013,08,12,01,18,14.80
2013,08,12,01,19,14.80
2013,08,12,01,20,14.80
2013,08,12,01,21,14.80
2013,08,12,01,22,14.90
2013,08,12,01,23,14.90
2013,08,12,01,24,14.90
2013,08,12,01,25,14.80
2013,08,12,01,26,14.80
2013,08,12,01,27,14.80
2013,08,12,01,28,14.80
2013,08,12,01,29,14.80
2013,08,12,01,30,14.80
2013,08,12,01,31,14.80
2013,08,12,01,32,14.80
2013,08,12,01,33,14.80
2013,08,12,01,34,14.80
2013,08,12,01,35,14.80
2013,08,12,01,36,14.80
2013,08,12,01,37,14.80
2013,08,12,01,38,14.80
2013,08,12,01,39,14.80
2013,08,12,01,40,14.80
2013,08,12,01,41,14.80
2013,08,12,01,42,14.80
2013,08,12,01,43,14.80
2013,08,12,01,44,14.80
2013,08,12,01,45,14.80
2013,08,12,01,46,14.80
2013,08,12,01,47,14.80
2013,08,12,01,48,14.80
2013,08,12,01,49,14.80
2013,08,12,01,50,14.80
2013,08,12,01,51,14.80
2013,08,12,01,52,14.80
2013,08,12,01,53,14.80
2013,08,12,01,54,14.80
2013,08,12,01,55,14.80
2013,08,12,01,56,14.80
2013,08,12,01,57,14.80
2013,08,12,01,58,14.80
2013,08,12,01,59,14.80
2013,08,12,02,00,14.80
2013,08,12,02,01,14.80
2013,08,12,02,02,14.80
2013,08,12,02,03,14.80
2013,08,12,02,04,14.80
2013,08,12,02,05,14.80
2013,08,12,02,06,14.80
2013,08,12,02,07,14.80
2013,08,12,02,08,14.80
2013,08,12,02,09,14.80
2013,08,12,02,10,14.80
2013,08,12,02,11,14.80
2013,08,12,02,12,14.80
2013,08,12,02,13,14.80
2013,08,12,02,14,14.80
2013,08,12,02,15,14.80
2013,08,12,02,16,14.80
2013,08,12,02,17,14.80
2013,08,12,02,18,14.80
2013,08,12,02,19,14.80
2013,08,12,02,20,14.80
2013,08,12,02,21,14.80
2013,08,12,02,22,14.80
2013,08,12,02,23,14.80
2013,08,12,02,24,14.80
2013,08,12,02,25,14.80
2013,08,12,02,26,14.80
2013,08,12,02,27,14.80
2013,08,12,02,28,14.80
2013,08,12,02,29,14.80
2013,08,12,02,30,14.80
2013,08,12,02,31,14.80
2013,08,12,02,32,14.80
2013,08,12,02,33,14.80
2013,08,12,02,34,14.80
2013,08,12,02,35,14.80
2013,08,12,02,36,14.80
2013,08,12,02,37,14.80
2013,08,12,02,38,14.80
2013,08,12,02,39,14.80
2013,08,12,02,40,14.80
2013,08,12,02,41,14.80
2013,08,12,02,42,14.80
2013,08,12,02,43,14.80
2013,08,12,02,44,14.80
2013,08,12,02,45,14.80
2013,08,12,02,46,14.80
2013,08,12,02,47,14.80
2013,08,12,02,48,14.80
2013,08,12,02,49,14.80
2013,08,12,02,50,14.80
2013,08,12,07,06,15.10
2013,08,12,07,07,15.10
2013,08,12,07,08,15.10
2013,08,12,07,09,15.10
2013,08,12,07,10,15.10
2013,08,12,07,11,15.10
2013,08,12,07,12,15.10
2013,08,12,07,13,15.10
2013,08,12,07,14,15.10
2013,08,12,07,15,15.10
2013,08,12,07,16,15.10
2013,08,12,07,17,15.10
2013,08,12,07,18,15.10
2013,08,12,07,19,15.10
2013,08,12,07,20,15.10
2013,08,12,07,21,15.10
2013,08,12,07,22,15.10
2013,08,12,07,23,15.10
2013,08,12,07,24,15.10
2013,08,12,07,25,15.10
2013,08,12,07,26,15.10
2013,08,12,07,27,15.10
2013,08,12,07,28,15.10
2013,08,12,07,29,15.10
2013,08,12,07,30,15.10
2013,08,12,07,31,15.10
2013,08,12,07,32,15.10
2013,08,12,07,33,15.20
2013,08,12,07,34,15.20
2013,08,12,07,35,15.20
2013,08,12,07,36,15.20
2013,08,12,07,37,15.20
2013,08,12,07,38,15.20
2013,08,12,07,39,15.30
2013,08,12,07,40,15.30
2013,08,12,07,41,15.30
2013,08,12,07,42,15.30
2013,08,12,07,43,15.30
2013,08,12,07,44,15.30
2013,08,12,07,45,15.30
2013,08,12,07,46,15.30
2013,08,12,07,47,15.30
2013,08,12,07,48,15.30
2013,08,12,07,49,15.30
2013,08,12,07,50,15.30
2013,08,12,07,51,15.30
2013,08,12,07,52,15.30
2013,08,12,07,53,15.30
2013,08,12,07,54,15.30
2013,08,12,07,55,15.30
2013,08,12,07,56,15.30
2013,08,12,07,57,15.30
2013,08,12,07,58,15.20
2013,08,12,07,59,15.20
2013,08,12,08,00,15.20
2013,08,12,08,01,15.20
2013,08,12,08,02,15.20
2013,08,12,08,03,15.20
2013,08,12,08,04,15.20
2013,08,12,08,05,15.20
2013,08,12,08,06,15.20
2013,08,12,08,07,15.20
2013,08,12,08,08,15.20
2013,08,12,08,09,15.20
2013,08,12,08,10,15.20
2013,08,12,08,11,15.20
2013,08,12,08,12,15.20
2013,08,12,08,13,15.20
2013,08,12,08,14,15.20
2013,08,12,08,15,15.20
2013,08,12,08,16,15.20
2013,08,12,08,17,15.20
2013,08,12,08,18,15.20
2013,08,12,08,19,15.20
2013,08,12,08,20,15.20
2013,08,12,08,21,15.20
2013,08,12,08,22,15.20
2013,08,12,08,23,15.20
2013,08,12,08,24,15.20
2013,08,12,08,25,15.30
2013,08,12,08,26,15.30
2013,08,12,08,27,15.30
2013,08,12,08,28,15.30
2013,08,12,08,29,15.30
2013,08,12,08,30,15.30
2013,08,12,08,31,15.30
2013,08,12,08,32,15.30
2013,08,12,08,33,15.40
2013,08,12,08,34,15.40
2013,08,12,08,35,15.40
2013,08,12,08,36,15.40
2013,08,12,08,37,15.40
2013,08,12,08,38,15.40
2013,08,12,08,39,15.40
2013,08,12,08,40,15.40
2013,08,12,08,41,15.40
2013,08,12,08,42,15.40
2013,08,12,08,43,15.30
2013,08,12,08,44,15.30
2013,08,12,08,45,15.30
2013,08,12,08,46,15.30
2013,08,12,08,47,15.30
2013,08,12,08,48,15.30
2013,08,12,08,49,15.30
2013,08,12,08,50,15.30
2013,08,12,08,51,15.30
2013,08,12,08,52,15.30
2013,08,12,08,53,15.30
2013,08,12,08,54,15.30
2013,08,12,08,55,15.30
2013,08,12,08,56,15.30
2013,08,12,08,57,15.30
2013,08,12,08,58,15.30
2013,08,12,08,59,15.30
2013,08,12,09,00,15.30
2013,08,12,09,01,15.30
2013,08,12,09,02,15.30
2013,08,12,09,03,15.30
2013,08,12,09,04,15.30
2013,08,12,09,05,15.20
2013,08,12,09,06,15.20
2013,08,12,09,07,15.20
2013,08,12,09,08,15.20
2013,08,12,09,09,15.10
2013,08,12,09,10,15.10
2013,08,12,09,11,15.10
2013,08,12,09,12,15.10
2013,08,12,09,13,15.00
2013,08,12,09,14,15.00
2013,08,12,09,15,15.00
2013,08,12,09,16,14.90
2013,08,12,09,17,14.90
2013,08,12,09,18,14.90
2013,08,12,09,19,14.90
2013,08,12,09,20,14.90
2013,08,12,09,21,14.90
2013,08,12,09,22,14.90
2013,08,12,09,23,14.90
2013,08,12,09,24,14.90
2013,08,12,09,25,14.90
2013,08,12,09,26,15.00
2013,08,12,09,27,15.00
2013,08,12,09,28,15.00
2013,08,12,09,29,15.00
2013,08,12,09,30,15.00
2013,08,12,09,31,15.00
2013,08,12,09,32,15.00
2013,08,12,09,33,15.00
2013,08,12,09,34,15.00
2013,08,12,09,35,15.00
2013,08,12,09,36,15.00
2013,08,12,09,37,15.00
2013,08,12,09,38,15.00
2013,08,12,09,39,14.90
2013,08,12,09,40,14.90
2013,08,12,09,41,14.90
2013,08,12,09,42,14.90
2013,08,12,09,43,14.90
2013,08,12,09,44,14.90
2013,08,12,09,45,14.90
2013,08,12,09,46,14.90
2013,08,12,09,47,14.90
2013,08,12,09,48,14.90
2013,08,12,09,49,14.90
2013,08,12,09,50,14.90
2013,08,12,09,51,14.90
2013,08,12,09,52,14.90
2013,08,12,09,53,14.90
2013,08,12,09,54,14.80
2013,08,12,09,55,14.80
2013,08,12,09,56,14.80
2013,08,12,09,57,14.80
2013,08,12,09,58,14.80
2013,08,12,09,59,14.80
2013,08,12,10,00,14.80
2013,08,12,10,01,14.80
2013,08,12,10,02,14.80
2013,08,12,10,03,14.80
2013,08,12,10,04,14.80
2013,08,12,10,05,14.80
2013,08,12,10,06,14.80
2013,08,12,10,07,14.80
2013,08,12,10,08,14.70
2013,08,12,10,09,14.70
2013,08,12,10,10,14.70
2013,08,12,10,11,14.70
2013,08,12,10,12,14.70
2013,08,12,10,13,14.70
2013,08,12,10,14,14.70
2013,08,12,10,15,14.70
2013,08,12,10,16,14.70
2013,08,12,10,17,14.70
2013,08,12,10,18,14.70
2013,08,12,10,19,14.80
2013,08,12,10,20,14.80
2013,08,12,10,21,14.80
2013,08,12,10,22,14.80
2013,08,12,10,23,14.80
2013,08,12,10,24,14.80
2013,08,12,10,25,14.80
2013,08,12,10,26,14.80
2013,08,12,10,27,14.80
2013,08,12,10,28,14.80
2013,08,12,10,29,14.80
2013,08,12,10,30,14.80
2013,08,12,10,31,14.80
2013,08,12,10,32,14.80
2013,08,12,10,33,14.80
2013,08,12,10,34,14.80
2013,08,12,10,35,14.80
2013,08,12,10,36,14.80
2013,08,12,10,37,14.80
2013,08,12,10,38,14.80
2013,08,12,10,39,14.80
2013,08,12,10,40,14.90
2013,08,12,10,41,14.90
2013,08,12,10,42,14.90
2013,08,12,10,43,14.90
2013,08,12,10,44,14.90
2013,08,12,10,45,14.90
2013,08,12,10,46,14.90
2013,08,12,10,47,15.00
2013,08,12,10,48,15.00
2013,08,12,10,49,15.10
2013,08,12,10,50,15.10
2013,08,12,10,51,15.10
2013,08,12,10,52,15.20
2013,08,12,10,53,15.20
2013,08,12,10,54,15.20
2013,08,12,10,55,15.20
2013,08,12,10,56,15.20
2013,08,12,10,57,15.20
2013,08,12,10,58,15.20
2013,08,12,10,59,15.20
2013,08,12,11,00,15.20
2013,08,12,11,01,15.20
2013,08,12,11,02,15.20
2013,08,12,11,03,15.30
2013,08,12,11,04,15.30
2013,08,12,11,05,15.30
2013,08,12,11,06,15.30
2013,08,12,11,07,15.30
2013,08,12,11,08,15.30
2013,08,12,11,09,15.30
2013,08,12,11,10,15.40
2013,08,12,11,11,15.40
2013,08,12,11,12,15.40
2013,08,12,11,13,15.40
2013,08,12,11,14,15.40
2013,08,12,11,15,15.40
2013,08,12,11,16,15.50
2013,08,12,11,17,15.50
2013,08,12,11,18,15.60
2013,08,12,11,19,15.70
2013,08,12,11,20,15.70
2013,08,12,11,21,15.70
2013,08,12,11,22,15.70
2013,08,12,11,23,15.70
2013,08,12,11,24,15.70
2013,08,12,11,25,15.70
2013,08,12,11,26,15.70
2013,08,12,11,27,15.70
2013,08,12,11,28,15.80
2013,08,12,11,29,15.80
2013,08,12,11,30,15.80
2013,08,12,11,31,15.80
2013,08,12,11,32,15.80
2013,08,12,11,33,15.80
2013,08,12,11,34,15.80
2013,08,12,11,35,15.90
2013,08,12,11,36,15.90
2013,08,12,11,37,15.90
2013,08,12,11,38,15.90
2013,08,12,11,39,15.90
2013,08,12,11,40,15.90
2013,08,12,11,41,15.90
2013,08,12,11,42,15.90
2013,08,12,11,43,15.90
2013,08,12,11,44,15.90
2013,08,12,11,45,15.90
2013,08,12,11,46,15.90
2013,08,12,11,47,15.90
2013,08,12,11,48,15.90
2013,08,12,11,49,15.90
2013,08,12,11,50,15.90
2013,08,12,11,51,15.90
2013,08,12,11,52,15.90
2013,08,12,11,53,16.10
2013,08,12,11,54,16.10
2013,08,12,11,55,16.10
2013,08,12,11,56,16.10
2013,08,12,11,57,16.20
2013,08,12,11,58,16.20
2013,08,12,11,59,16.20
2013,08,12,12,00,16.20
2013,08,12,12,01,16.20
2013,08,12,12,02,16.10
2013,08,12,12,03,16.10
2013,08,12,12,04,16.10
2013,08,12,12,05,16.20
2013,08,12,12,06,16.30
2013,08,12,12,07,16.30
2013,08,12,12,08,16.30
2013,08,12,12,09,16.30
2013,08,12,12,10,16.40
2013,08,12,12,11,16.40
2013,08,12,12,12,16.60
2013,08,12,12,13,16.60
2013,08,12,12,14,16.70
2013,08,12,12,15,16.70
2013,08,12,12,16,16.80
2013,08,12,12,17,16.80
2013,08,12,12,18,16.90
2013,08,12,12,19,16.90
2013,08,12,12,20,16.90
2013,08,12,12,21,16.90
2013,08,12,12,22,16.90
2013,08,12,12,23,16.90
2013,08,12,12,24,16.90
2013,08,12,12,25,16.90
2013,08,12,12,26,16.90
2013,08,12,12,27,17.00
2013,08,12,12,28,17.00
2013,08,12,12,29,17.10
2013,08,12,12,30,17.10
2013,08,12,12,31,17.10
2013,08,12,12,32,17.20
2013,08,12,12,33,17.20
2013,08,12,12,34,17.30
2013,08,12,12,35,17.30
2013,08,12,12,36,17.30
2013,08,12,12,37,17.30
2013,08,12,12,38,17.30
2013,08,12,12,39,17.30
2013,08,12,12,40,17.40
2013,08,12,12,41,17.50
2013,08,12,12,42,17.60
2013,08,12,12,43,17.60
2013,08,12,12,44,17.60
2013,08,12,12,45,17.70
2013,08,12,12,46,17.70
2013,08,12,12,47,17.80
2013,08,12,12,48,17.90
2013,08,12,12,49,18.10
2013,08,12,12,50,18.20
2013,08,12,12,51,18.20
2013,08,12,12,52,18.20
2013,08,12,12,53,18.30
2013,08,12,12,54,18.40
2013,08,12,12,55,18.50
2013,08,12,12,56,18.60
2013,08,12,12,57,18.70
2013,08,12,12,58,18.70
2013,08,12,12,59,18.80
2013,08,12,13,00,18.80
2013,08,12,13,01,18.90
2013,08,12,13,02,18.90
2013,08,12,13,03,18.90
2013,08,12,13,04,18.90
2013,08,12,13,05,18.90
2013,08,12,13,06,18.90
2013,08,12,13,07,18.90
2013,08,12,13,08,18.90
2013,08,12,13,09,18.90
2013,08,12,13,10,18.90
2013,08,12,13,11,18.90
2013,08,12,13,12,18.90
2013,08,12,13,13,18.80
2013,08,12,13,14,18.80
2013,08,12,13,15,18.70
2013,08,12,13,16,18.70
2013,08,12,13,17,18.70
2013,08,12,13,18,18.70
2013,08,12,13,19,18.70
2013,08,12,13,20,18.70
2013,08,12,13,21,18.70
2013,08,12,13,22,18.70
2013,08,12,13,23,18.70
2013,08,12,13,24,18.60
2013,08,12,13,25,18.50
2013,08,12,13,26,18.40
2013,08,12,13,27,18.40
2013,08,12,13,28,18.30
2013,08,12,13,29,18.20
2013,08,12,13,30,18.20
2013,08,12,13,31,18.20
2013,08,12,13,32,18.20
2013,08,12,13,33,18.20
2013,08,12,13,34,18.20
2013,08,12,13,35,18.20
2013,08,12,13,36,18.20
2013,08,12,13,37,18.20
2013,08,12,13,38,18.20
2013,08,12,13,39,18.20
2013,08,12,13,40,18.20
2013,08,12,13,41,18.30
2013,08,12,13,42,18.30
2013,08,12,13,43,18.30
2013,08,12,13,44,18.30
2013,08,12,13,45,18.30
2013,08,12,13,46,18.20
2013,08,12,13,47,18.20
2013,08,12,13,48,18.20
2013,08,12,13,49,18.20
2013,08,12,13,50,18.20
2013,08,12,13,51,18.20
2013,08,12,13,52,18.10
2013,08,12,13,53,18.10
2013,08,12,13,54,18.10
2013,08,12,13,55,17.90
2013,08,12,13,56,17.90
2013,08,12,13,57,17.90
2013,08,12,13,58,17.90
2013,08,12,13,59,17.90
2013,08,12,14,00,17.90
2013,08,12,14,01,17.90
2013,08,12,14,02,17.90
2013,08,12,14,03,17.90
2013,08,12,14,04,17.90
2013,08,12,14,05,17.90
2013,08,12,14,06,17.90
2013,08,12,14,07,17.90
2013,08,12,14,08,17.80
2013,08,12,14,09,17.80
2013,08,12,14,10,17.80
2013,08,12,14,11,17.70
2013,08,12,14,12,17.70
2013,08,12,14,13,17.60
2013,08,12,14,14,17.60
2013,08,12,14,15,17.60
2013,08,12,14,16,17.60
2013,08,12,14,17,17.60
2013,08,12,14,18,17.50
2013,08,12,14,19,17.50
2013,08,12,14,20,17.50
2013,08,12,14,21,17.50
2013,08,12,14,22,17.50
2013,08,12,14,23,17.50
2013,08,12,14,24,17.50
2013,08,12,14,25,17.50
2013,08,12,14,26,17.50
2013,08,12,14,27,17.50
2013,08,12,14,28,17.60
2013,08,12,14,29,17.60
2013,08,12,14,30,17.60
2013,08,12,14,31,17.70
2013,08,12,14,32,17.70
2013,08,12,14,33,17.80
2013,08,12,14,34,17.80
2013,08,12,14,35,17.80
2013,08,12,14,36,17.90
2013,08,12,14,37,17.90
2013,08,12,14,38,17.90
2013,08,12,14,39,17.80
2013,08,12,14,40,17.80
2013,08,12,14,41,17.80
2013,08,12,14,42,17.80
2013,08,12,14,43,17.80
2013,08,12,14,44,17.80
2013,08,12,14,45,17.80
2013,08,12,14,46,17.80
2013,08,12,14,47,17.90
2013,08,12,14,48,17.90
2013,08,12,14,49,17.90
2013,08,12,14,50,17.90
2013,08,12,14,51,17.90
2013,08,12,14,52,18.10
2013,08,12,14,53,18.10
2013,08,12,14,54,18.20
2013,08,12,14,55,18.20
2013,08,12,14,56,18.20
2013,08,12,14,57,18.10
2013,08,12,14,58,17.90
2013,08,12,14,59,17.90
2013,08,12,15,00,17.90
2013,08,12,15,01,17.70
2013,08,12,15,02,17.70
2013,08,12,15,03,17.60
2013,08,12,15,04,17.60
2013,08,12,15,05,17.60
2013,08,12,15,06,17.60
2013,08,12,15,07,17.60
2013,08,12,15,08,17.60
2013,08,12,15,09,17.60
2013,08,12,15,10,17.60
2013,08,12,15,11,17.60
2013,08,12,15,12,17.70
2013,08,12,15,13,17.70
2013,08,12,15,14,17.70
2013,08,12,15,15,17.70
2013,08,12,15,16,17.70
2013,08,12,15,17,17.70
2013,08,12,15,18,17.60
2013,08,12,15,19,17.60
2013,08,12,15,20,17.60
2013,08,12,15,21,17.60
2013,08,12,15,22,17.60
2013,08,12,15,23,17.60
2013,08,12,15,24,17.60
2013,08,12,15,25,17.70
2013,08,12,15,26,17.70
2013,08,12,15,27,17.70
2013,08,12,15,28,17.80
2013,08,12,15,29,17.80
2013,08,12,15,30,17.80
2013,08,12,15,31,17.80
2013,08,12,15,32,17.80
2013,08,12,15,33,17.80
2013,08,12,15,34,17.80
2013,08,12,15,35,17.70
2013,08,12,15,36,17.70
2013,08,12,15,37,17.80
2013,08,12,15,38,17.90
2013,08,12,15,39,17.90
2013,08,12,15,40,17.90
2013,08,12,15,41,17.90
2013,08,12,15,42,18.10
2013,08,12,15,43,18.10
2013,08,12,15,44,18.10
2013,08,12,15,45,18.20
2013,08,12,15,46,18.20
2013,08,12,15,47,18.20
2013,08,12,15,48,18.30
2013,08,12,15,49,18.30
2013,08,12,15,50,18.40
2013,08,12,15,51,18.50
2013,08,12,15,52,18.50
2013,08,12,15,53,18.50
2013,08,12,15,54,18.50
2013,08,12,15,55,18.60
2013,08,12,15,56,18.60
2013,08,12,15,57,18.50
2013,08,12,15,58,18.50
2013,08,12,15,59,18.50
2013,08,12,16,00,18.50
2013,08,12,16,01,18.50
2013,08,12,16,02,18.60
2013,08,12,16,03,18.50
2013,08,12,16,04,18.50
2013,08,12,16,05,18.50
2013,08,12,16,06,18.40
2013,08,12,16,07,18.40
2013,08,12,16,08,18.40
2013,08,12,16,09,18.40
2013,08,12,16,10,18.50
2013,08,12,16,11,18.50
2013,08,12,16,12,18.50
2013,08,12,16,13,18.60
2013,08,12,16,14,18.70
2013,08,12,16,15,18.70
2013,08,12,16,16,18.80
2013,08,12,16,17,18.80
2013,08,12,16,18,18.90
2013,08,12,16,19,18.90
2013,08,12,16,20,18.90
2013,08,12,16,21,18.90
2013,08,12,16,22,18.90
2013,08,12,16,23,18.90
2013,08,12,16,24,18.90
2013,08,12,16,25,18.80
2013,08,12,16,26,18.80
2013,08,12,16,27,18.80
2013,08,12,16,28,18.80
2013,08,12,16,29,18.80
2013,08,12,16,30,18.80
2013,08,12,16,31,18.80
2013,08,12,16,32,18.90
2013,08,12,16,33,18.90
2013,08,12,16,34,19.10
2013,08,12,16,35,19.10
2013,08,12,16,36,19.10
2013,08,12,16,37,19.20
2013,08,12,16,38,19.30
2013,08,12,16,39,19.30
2013,08,12,16,40,19.40
2013,08,12,16,41,19.40
2013,08,12,16,42,19.50
2013,08,12,16,43,19.60
2013,08,12,16,44,19.50
2013,08,12,16,45,19.50
2013,08,12,16,46,19.40
2013,08,12,16,47,19.30
2013,08,12,16,48,19.20
2013,08,12,16,49,19.10
2013,08,12,16,50,19.10
2013,08,12,16,51,18.90
2013,08,12,16,52,18.90
2013,08,12,16,53,18.90
2013,08,12,16,54,18.90
2013,08,12,16,55,18.90
2013,08,12,16,56,18.90
2013,08,12,16,57,19.10
2013,08,12,16,58,19.10
2013,08,12,16,59,19.10
2013,08,12,17,00,19.10
2013,08,12,17,01,19.10
2013,08,12,17,02,19.10
2013,08,12,17,03,19.10
2013,08,12,17,04,19.10
2013,08,12,17,05,19.10
2013,08,12,17,06,19.10
2013,08,12,17,07,19.10
2013,08,12,17,08,19.10
2013,08,12,17,09,19.10
2013,08,12,17,10,19.20
2013,08,12,17,11,19.20
2013,08,12,17,12,19.30
2013,08,12,17,13,19.40
2013,08,12,17,14,19.50
2013,08,12,17,15,19.60
2013,08,12,17,16,19.70
2013,08,12,17,17,19.80
2013,08,12,17,18,19.90
2013,08,12,17,19,19.90
2013,08,12,17,20,19.90
2013,08,12,17,21,19.90
2013,08,12,17,22,20.10
2013,08,12,17,23,20.10
2013,08,12,17,24,20.10
2013,08,12,17,25,20.10
2013,08,12,17,26,19.90
2013,08,12,17,27,19.90
2013,08,12,17,28,19.90
2013,08,12,17,29,19.80
2013,08,12,17,30,19.80
2013,08,12,17,31,19.80
2013,08,12,17,32,19.70
2013,08,12,17,33,19.70
2013,08,12,17,34,19.70
2013,08,12,17,35,19.70
2013,08,12,17,36,19.70
2013,08,12,17,37,19.70
2013,08,12,17,38,19.70
2013,08,12,17,39,19.70
2013,08,12,17,40,19.70
2013,08,12,17,41,19.70
2013,08,12,17,42,19.70
2013,08,12,17,43,19.70
2013,08,12,17,44,19.80
2013,08,12,17,45,19.80
2013,08,12,17,46,19.90
2013,08,12,17,47,19.90
2013,08,12,17,48,20.10
2013,08,12,17,49,20.20
2013,08,12,17,50,20.20
2013,08,12,17,51,20.20
2013,08,12,17,52,20.30
2013,08,12,17,53,20.40
2013,08,12,17,54,20.50
2013,08,12,17,55,20.50
2013,08,12,17,56,20.60
2013,08,12,17,57,20.60
2013,08,12,17,58,20.60
2013,08,12,17,59,20.70
2013,08,12,18,00,20.70
2013,08,12,18,01,20.70
2013,08,12,18,02,20.70
2013,08,12,18,03,20.70
2013,08,12,18,04,20.60
2013,08,12,18,05,20.50
2013,08,12,18,06,20.50
2013,08,12,18,07,20.40
2013,08,12,18,08,20.30
2013,08,12,18,09,20.20
2013,08,12,18,10,20.20
2013,08,12,18,11,20.10
2013,08,12,18,12,20.10
2013,08,12,18,13,19.90
2013,08,12,18,14,19.90
2013,08,12,18,15,19.90
2013,08,12,18,16,19.80
2013,08,12,18,17,19.80
2013,08,12,18,18,19.70
2013,08,12,18,19,19.70
2013,08,12,18,20,19.60
2013,08,12,18,21,19.60
2013,08,12,18,22,19.60
2013,08,12,18,23,19.60
2013,08,12,18,24,19.60
2013,08,12,18,25,19.60
2013,08,12,18,26,19.60
2013,08,12,18,27,19.60
2013,08,12,18,28,19.60
2013,08,12,18,29,19.60
2013,08,12,18,30,19.60
2013,08,12,18,31,19.60
2013,08,12,18,32,19.60
2013,08,12,18,33,19.60
2013,08,12,18,34,19.60
2013,08,12,18,35,19.50
2013,08,12,18,36,19.50
2013,08,12,18,37,19.50
2013,08,12,18,38,19.50
2013,08,12,18,39,19.40
2013,08,12,18,40,19.40
2013,08,12,18,41,19.40
2013,08,12,18,42,19.40
2013,08,12,18,43,19.40
2013,08,12,18,44,19.40
2013,08,12,18,45,19.40
2013,08,12,18,46,19.40
2013,08,12,18,47,19.40
2013,08,12,18,48,19.40
2013,08,12,18,49,19.40
2013,08,12,18,50,19.40
2013,08,12,18,51,19.40
2013,08,12,18,52,19.40
2013,08,12,18,53,19.40
2013,08,12,18,54,19.50
2013,08,12,18,55,19.50
2013,08,12,18,56,19.40
2013,08,12,18,57,19.40
2013,08,12,18,58,19.40
2013,08,12,18,59,19.40
2013,08,12,19,00,19.50
2013,08,12,19,01,19.50
2013,08,12,19,02,19.50
2013,08,12,19,03,19.50
2013,08,12,19,04,19.50
2013,08,12,19,05,19.50
2013,08,12,19,06,19.50
2013,08,12,19,07,19.50
2013,08,12,19,08,19.50
2013,08,12,19,09,19.50
2013,08,12,19,10,19.50
2013,08,12,19,11,19.50
2013,08,12,19,12,19.60
2013,08,12,19,13,19.60
2013,08,12,19,14,19.60
2013,08,12,19,15,19.60
2013,08,12,19,16,19.60
2013,08,12,19,17,19.60
2013,08,12,19,18,19.60
2013,08,12,19,19,19.60
2013,08,12,19,20,19.60
2013,08,12,19,21,19.50
2013,08,12,19,22,19.50
2013,08,12,19,23,19.50
2013,08,12,19,24,19.40
2013,08,12,19,25,19.40
2013,08,12,19,26,19.30
2013,08,12,19,27,19.20
2013,08,12,19,28,19.20
2013,08,12,19,29,19.10
2013,08,12,19,30,19.10
2013,08,12,19,31,19.10
2013,08,12,19,32,19.10
2013,08,12,19,33,18.90
2013,08,12,19,34,18.90
2013,08,12,19,35,18.90
2013,08,12,19,36,18.80
2013,08,12,19,37,18.80
2013,08,12,19,38,18.80
2013,08,12,19,39,18.80
2013,08,12,19,40,18.70
2013,08,12,19,41,18.70
2013,08,12,19,42,18.60
2013,08,12,19,43,18.60
2013,08,12,19,44,18.50
2013,08,12,19,45,18.50
2013,08,12,19,46,18.50
2013,08,12,19,47,18.40
2013,08,12,19,48,18.30
2013,08,12,19,49,18.30
2013,08,12,19,50,18.20
2013,08,12,19,51,18.20
2013,08,12,19,52,18.20
2013,08,12,19,53,18.20
2013,08,12,19,54,18.10
2013,08,12,19,55,18.10
2013,08,12,19,56,18.10
2013,08,12,19,57,17.90
2013,08,12,19,58,17.90
2013,08,12,19,59,17.90
2013,08,12,20,00,17.90
2013,08,12,20,01,17.90
2013,08,12,20,02,17.90
2013,08,12,20,03,17.90
2013,08,12,20,04,17.90
2013,08,12,20,05,17.90
2013,08,12,20,06,17.90
2013,08,12,20,07,17.90
2013,08,12,20,08,17.90
2013,08,12,20,09,18.10
2013,08,12,20,10,18.10
2013,08,12,20,11,18.10
2013,08,12,20,12,18.10
2013,08,12,20,13,18.10
2013,08,12,20,14,18.10
2013,08,12,20,15,18.10
2013,08,12,20,16,18.10
2013,08,12,20,17,17.90
2013,08,12,20,18,17.90
2013,08,12,20,19,17.90
2013,08,12,20,20,17.90
2013,08,12,20,21,17.90
2013,08,12,20,22,17.90
2013,08,12,20,23,17.80
2013,08,12,20,24,17.80
2013,08,12,20,25,17.70
2013,08,12,20,26,17.70
2013,08,12,20,27,17.70
2013,08,12,20,28,17.70
2013,08,12,20,29,17.70
2013,08,12,20,30,17.80
2013,08,12,20,31,17.70
2013,08,12,20,32,17.70
2013,08,12,20,33,17.70
2013,08,12,20,34,17.70
2013,08,12,20,35,17.70
2013,08,12,20,36,17.60
2013,08,12,20,37,17.60
2013,08,12,20,38,17.60
2013,08,12,20,39,17.60
2013,08,12,20,40,17.60
2013,08,12,20,41,17.50
2013,08,12,20,42,17.50
2013,08,12,20,43,17.50
2013,08,12,20,44,17.50
2013,08,12,20,45,17.40
2013,08,12,20,46,17.40
2013,08,12,20,47,17.40
2013,08,12,20,48,17.40
2013,08,12,20,49,17.40
2013,08,12,20,50,17.40
2013,08,12,20,51,17.40
2013,08,12,20,52,17.40
2013,08,12,20,53,17.40
2013,08,12,20,54,17.40
2013,08,12,20,55,17.40
2013,08,12,20,56,17.30
2013,08,12,20,57,17.30
2013,08,12,20,58,17.30
2013,08,12,20,59,17.30
2013,08,12,21,00,17.30
2013,08,12,21,01,17.30
2013,08,12,21,02,17.20
2013,08,12,21,03,17.20
2013,08,12,21,04,17.20
2013,08,12,21,05,17.10
2013,08,12,21,06,17.10
2013,08,12,21,07,17.00
2013,08,12,21,08,17.00
2013,08,12,21,09,17.00
2013,08,12,21,10,16.90
2013,08,12,21,11,16.90
2013,08,12,21,12,16.90
2013,08,12,21,13,16.90
2013,08,12,21,14,16.90
2013,08,12,21,15,16.80
2013,08,12,21,16,16.80
2013,08,12,21,17,16.80
2013,08,12,21,18,16.80
2013,08,12,21,19,16.80
2013,08,12,21,20,16.70
2013,08,12,21,21,16.70
2013,08,12,21,22,16.70
2013,08,12,21,23,16.80
2013,08,12,21,24,16.80
2013,08,12,21,25,16.80
2013,08,12,21,26,16.70
2013,08,12,21,27,16.70
2013,08,12,21,28,16.70
2013,08,12,21,29,16.70
2013,08,12,21,30,16.70
2013,08,12,21,31,16.70
2013,08,12,21,32,16.70
2013,08,12,21,33,16.70
2013,08,12,21,34,16.70